Showing default

METEOR 3M, 27001

Orbit data source: Space-Track

METEOR 3M, 27001 is a Commonwealth of Independent States-origin payload satellite in SSO that was launched on Mon, 10 Dec 2001 UTC via a ZENIT-2 launch vehicle from the Tyuratam Missile And Space Complex (TTMTR). Payload-class satellites include a variety of spacecraft equipped with specific instruments for various scientific and technological missions. These include communications satellites like Starlink; space stations such as the ISS; scientific satellites like the Hubble; Earth observation satellites from companies like Planet Labs, Umbra, and HawkEye 360; GPS; miniature CubeSats for education and research; and military/defense satellites.

Loading next visibility...
Identifier
27001, 2001-056A
Orbit
SSO
Last TLE update
15 hours ago
Origin
Manufacturer
VNIIEM
Mission
Civil Weather
Bus & Motor
METEOR-3, Unknown motor
Mass
2,476 kg wet, ~2,300 kg dry
Launch date (UTC)
2001-12-10 (24 years ago)
Launch vehicle
ZENIT-2
Launch site
Tyuratam Missile And Space Complex (TTMTR)
Object type
Payload
Rocket body
Debris
Shape & HBR
Cyl + 2 Pan, 14 m
Radar Cross Section
26.744 m², Large (>1 m²)

Expand to show TLE details & history

TLE from 15 hours ago
0 METEOR 3M
1 27001U 01056A   25183.94808322 -.00000009  00000-0  43119-4 0  9999
2 27001  99.8115 359.1118 0013768  13.4665 103.3810 13.69014918177095
Epoch: 2025-07-02T22:45Z
TLE epoch observation values (Epoch: 2025-07-02T22:45:14.39Z)
Latitude
61.49138°
Longitude
-64.95363°
Altitude
1,015.909 km
Speed
7.348 km/s
True Right ascension
13h 10m 18s
True Declination
61° 21' 07"
Sunlit
Object was in daylight at epoch
Visualization orbit readout
Latitude
37.7499°
Longitude
89.57767°
Altitude
999.125 km
Speed
7.36 km/s
Apparent Right ascension
19h 41m 07s
Apparent Declination
6° 52' 23"
Sunlit
Object is in daylight
Visualization observer readout
Local Sidereal Time
01:56:22
Azimuth
277.711° WNW
Elevation
1.5°
Doppler factor
1
Orbital elements
Apogee altitude
1,010.55 km
Perigee altitude
990.233 km
Semi-major axis
7,378.529 km
Eccentricity
0.00138
Inclination
99.8115°
RAAN
359.1118°
Arg. of periapsis
13.4665°
True anomaly
Unknown
Mean anomaly
103.381°
Eccentric anomaly
Unknown
Mean motion
3.42443 °/min
Orbital period
105.13 mins
BSTAR
0.000043119
Loading maneuver chart data...
Loading SW <> Apogee altitude chart data...
Loading historical data...
Loading historical data...
Loading historical data...
Loading historical data...
Loading historical data...
Loading historical data...
Loading historical data...

METEOR 3M Visibility forecast

Observer location: undefined°, undefined°

Span
Click to sort rows by Start time (UTC) header in descending order
Start Az.
Max El. time (UTC)
Max El. Az.
Max El.
End time (UTC)
End Az.
9 mins2025-07-03 23:21:25.410Z46.397° ENE2025-07-03 23:25:25.410Z87.179° E19.855°2025-07-03 23:30:25.410Z140.892° SSE
10 mins2025-07-04 01:05:25.410Z3.301° NNE2025-07-04 01:10:25.410Z270.417° WNW40.185°2025-07-04 01:15:25.410Z213.671° SW
11 mins2025-07-04 11:08:25.410Z144.451° SSE2025-07-04 11:13:25.410Z69.397° E40.236°2025-07-04 11:19:25.410Z353.297° N
7 mins2025-07-04 12:54:25.410Z230.327° WSW2025-07-04 12:57:25.410Z265.904° W20.071°2025-07-04 13:01:25.410Z310.23° NW
|